When you browse on this site, cookies collect data to enhance your experience and personalize the content and advertising you see.
Visit our Privacy Policy to learn more. By continuing to use the site, you agree to this use of cookies and data.
  • Em Portugal
  • Lista de países
  • Para 7 dias
  • Temperatura da água
  • Mapas de satélite
  • Mapa do tempo
  • Widgets de tempo
  • user-avatar
    Iniciar Sessão

    Previsão horária em Salzburgo

    Hoje, 16 Julho, Terça-feira

    Tempo Temperatura Precipitação Vento Pressão Humidade
    00:00 +6°C° 0 mm 1 m/s 625 mmHg 93%
    01:00 +5°C° 0 mm 0 m/s 625 mmHg 94%
    02:00 +6°C° 0 mm 1 m/s 625 mmHg 94%
    03:00 +6°C° 0 mm 1 m/s 625 mmHg 95%
    04:00 +5°C° 0 mm 1 m/s 625 mmHg 96%
    05:00 +7°C° 0 mm 1 m/s 626 mmHg 94%
    06:00 +9°C° 0 mm 1 m/s 627 mmHg 92%
    07:00 +10°C° 0 mm 0 m/s 628 mmHg 89%
    08:00 +12°C° 0.1 mm 1 m/s 628 mmHg 79%
    09:00 +14°C° 0.1 mm 1 m/s 628 mmHg 68%
    10:00 +16°C° 0.1 mm 1 m/s 629 mmHg 58%
    11:00 +16°C° 0.1 mm 1 m/s 629 mmHg 54%
    12:00 +17°C° 0.1 mm 2 m/s 629 mmHg 51%
    13:00 +18°C° 0.1 mm 2 m/s 629 mmHg 48%
    14:00 +17°C° 0.2 mm 2 m/s 629 mmHg 53%
    15:00 +17°C° 0.2 mm 2 m/s 629 mmHg 59%
    16:00 +16°C° 0.2 mm 2 m/s 628 mmHg 64%
    17:00 +15°C° 0.2 mm 2 m/s 628 mmHg 73%
    18:00 +14°C° 0.2 mm 1 m/s 627 mmHg 82%
    19:00 +12°C° 0.2 mm 1 m/s 627 mmHg 91%
    20:00 +11°C° 0 mm 1 m/s 627 mmHg 93%
    21:00 +9°C° 0 mm 1 m/s 627 mmHg 95%
    22:00 +7°C° 0 mm 0 m/s 627 mmHg 97%
    23:00 +8°C° 0 mm 1 m/s 627 mmHg 97%

    Amanhã, 17 Julho, Quarta-feira

    Tempo Temperatura Precipitação Vento Pressão Humidade
    00:00 +8°C° 0 mm 1 m/s 627 mmHg 97%
    01:00 +7°C° 0 mm 1 m/s 626 mmHg 97%
    02:00 +7°C° 0 mm 1 m/s 626 mmHg 96%
    03:00 +7°C° 0 mm 1 m/s 626 mmHg 96%
    04:00 +7°C° 0 mm 1 m/s 626 mmHg 96%
    05:00 +8°C° 0 mm 1 m/s 626 mmHg 94%
    06:00 +10°C° 0 mm 1 m/s 627 mmHg 91%
    07:00 +10°C° 0 mm 0 m/s 627 mmHg 89%
    08:00 +13°C° 0 mm 1 m/s 628 mmHg 77%
    09:00 +15°C° 0 mm 1 m/s 628 mmHg 65%
    10:00 +19°C° 0 mm 1 m/s 629 mmHg 53%
    11:00 +20°C° 0 mm 1 m/s 629 mmHg 49%
    12:00 +19°C° 0 mm 2 m/s 629 mmHg 45%
    13:00 +20°C° 0 mm 2 m/s 629 mmHg 42%
    14:00 +19°C° 0.2 mm 2 m/s 629 mmHg 49%
    15:00 +18°C° 0.2 mm 2 m/s 628 mmHg 56%
    16:00 +18°C° 0.2 mm 2 m/s 628 mmHg 64%
    17:00 +16°C° 1.1 mm 2 m/s 627 mmHg 73%
    18:00 +14°C° 1.1 mm 1 m/s 627 mmHg 82%
    19:00 +13°C° 1.1 mm 1 m/s 626 mmHg 92%
    20:00 +12°C° 0.9 mm 1 m/s 626 mmHg 92%
    21:00 +11°C° 0.9 mm 1 m/s 626 mmHg 92%
    22:00 +10°C° 0.9 mm 1 m/s 626 mmHg 92%
    23:00 +9°C° 0 mm 1 m/s 625 mmHg 93%

    Depois de amanhã, 18 Julho, Quinta-feira

    Tempo Temperatura Precipitação Vento Pressão Humidade
    00:00 +8°C° 0 mm 1 m/s 625 mmHg 93%
    01:00 +8°C° 0 mm 1 m/s 624 mmHg 94%
    02:00 +8°C° 0 mm 1 m/s 624 mmHg 93%
    03:00 +7°C° 0 mm 1 m/s 624 mmHg 93%
    04:00 +7°C° 0 mm 1 m/s 624 mmHg 93%
    05:00 +9°C° 0 mm 1 m/s 625 mmHg 92%
    06:00 +10°C° 0 mm 1 m/s 625 mmHg 90%
    07:00 +10°C° 0 mm 0 m/s 626 mmHg 89%
    08:00 +12°C° 0.1 mm 0 m/s 626 mmHg 78%
    09:00 +14°C° 0.1 mm 0 m/s 627 mmHg 68%
    10:00 +16°C° 0.1 mm 0 m/s 628 mmHg 57%
    11:00 +18°C° 0.2 mm 1 m/s 628 mmHg 57%
    12:00 +18°C° 0.2 mm 1 m/s 628 mmHg 57%
    13:00 +17°C° 0.2 mm 2 m/s 627 mmHg 56%
    14:00 +17°C° 0.3 mm 2 m/s 627 mmHg 57%
    15:00 +17°C° 0.3 mm 2 m/s 627 mmHg 57%
    16:00 +18°C° 0.3 mm 1 m/s 627 mmHg 58%
    17:00 +16°C° 0.4 mm 1 m/s 627 mmHg 67%
    18:00 +14°C° 0.4 mm 1 m/s 626 mmHg 76%
    19:00 +12°C° 0.4 mm 0 m/s 626 mmHg 86%
    20:00 +12°C° 0.3 mm 1 m/s 626 mmHg 87%
    21:00 +10°C° 0.3 mm 1 m/s 626 mmHg 89%
    22:00 +9°C° 0.3 mm 1 m/s 625 mmHg 91%
    23:00 +9°C° 0 mm 1 m/s 625 mmHg 91%

    19 Julho, Sexta-feira

    Tempo Temperatura Precipitação Vento Pressão Humidade
    00:00 +8°C° 0 mm 1 m/s 625 mmHg 91%
    01:00 +8°C° 0 mm 1 m/s 625 mmHg 91%
    02:00 +8°C° 0 mm 1 m/s 625 mmHg 91%
    03:00 +8°C° 0 mm 1 m/s 625 mmHg 91%
    04:00 +8°C° 0 mm 1 m/s 626 mmHg 90%
    05:00 +8°C° 0 mm 0 m/s 626 mmHg 90%
    06:00 +9°C° 0 mm 0 m/s 627 mmHg 89%
    07:00 +10°C° 0 mm 0 m/s 627 mmHg 88%
    08:00 +11°C° 0.2 mm 0 m/s 628 mmHg 86%
    09:00 +13°C° 0.2 mm 1 m/s 628 mmHg 84%
    10:00 +14°C° 0.2 mm 1 m/s 628 mmHg 81%
    11:00 +15°C° 0.4 mm 1 m/s 629 mmHg 74%
    12:00 +18°C° 0.4 mm 1 m/s 629 mmHg 67%
    13:00 +19°C° 0.4 mm 1 m/s 629 mmHg 60%
    14:00 +19°C° 0.5 mm 1 m/s 629 mmHg 64%
    15:00 +18°C° 0.5 mm 1 m/s 629 mmHg 67%
    16:00 +18°C° 0.5 mm 1 m/s 629 mmHg 70%
    17:00 +16°C° 0.2 mm 1 m/s 628 mmHg 75%
    18:00 +15°C° 0.2 mm 1 m/s 628 mmHg 81%
    19:00 +13°C° 0.2 mm 0 m/s 628 mmHg 86%
    20:00 +11°C° 0 mm 0 m/s 628 mmHg 87%
    21:00 +11°C° 0 mm 1 m/s 628 mmHg 89%
    22:00 +10°C° 0 mm 1 m/s 627 mmHg 90%
    23:00 +10°C° 0 mm 1 m/s 627 mmHg 90%

    20 Julho, Sábado

    Tempo Temperatura Precipitação Vento Pressão Humidade
    00:00 +9°C° 0 mm 1 m/s 627 mmHg 90%
    01:00 +9°C° 0 mm 1 m/s 627 mmHg 90%
    02:00 +9°C° 0 mm 1 m/s 627 mmHg 89%
    03:00 +9°C° 0 mm 1 m/s 627 mmHg 89%
    04:00 +8°C° 0 mm 1 m/s 627 mmHg 88%
    05:00 +10°C° 0 mm 1 m/s 627 mmHg 85%
    06:00 +12°C° 0 mm 1 m/s 628 mmHg 82%
    07:00 +13°C° 0 mm 1 m/s 628 mmHg 80%
    08:00 +16°C° 0 mm 1 m/s 629 mmHg 68%
    09:00 +18°C° 0 mm 0 m/s 630 mmHg 57%
    10:00 +20°C° 0 mm 0 m/s 631 mmHg 46%
    11:00 +23°C° 0 mm 1 m/s 631 mmHg 44%
    12:00 +24°C° 0 mm 1 m/s 631 mmHg 42%
    13:00 +25°C° 0 mm 1 m/s 631 mmHg 39%
    14:00 +24°C° 0 mm 1 m/s 631 mmHg 44%
    15:00 +23°C° 0 mm 1 m/s 630 mmHg 49%
    16:00 +22°C° 0 mm 1 m/s 630 mmHg 54%
    17:00 +20°C° 0.7 mm 1 m/s 629 mmHg 65%
    18:00 +18°C° 0.7 mm 1 m/s 628 mmHg 77%
    19:00 +15°C° 0.7 mm 1 m/s 628 mmHg 88%
    20:00 +15°C° 0.6 mm 1 m/s 628 mmHg 90%
    21:00 +14°C° 0.6 mm 1 m/s 628 mmHg 91%
    22:00 +13°C° 0.6 mm 2 m/s 628 mmHg 93%
    23:00 +12°C° 1.1 mm 2 m/s 628 mmHg 94%

    21 Julho, Domingo

    Tempo Temperatura Precipitação Vento Pressão Humidade
    00:00 +12°C° 1.1 mm 1 m/s 628 mmHg 96%
    01:00 +11°C° 1.1 mm 1 m/s 628 mmHg 97%
    02:00 +11°C° 1.2 mm 1 m/s 628 mmHg 97%
    03:00 +11°C° 1.2 mm 1 m/s 628 mmHg 97%
    04:00 +10°C° 1.2 mm 1 m/s 628 mmHg 97%
    05:00 +11°C° 0.3 mm 1 m/s 628 mmHg 96%
    06:00 +10°C° 0.3 mm 0 m/s 628 mmHg 95%
    07:00 +10°C° 0.3 mm 0 m/s 629 mmHg 95%
    08:00 +11°C° 0.1 mm 0 m/s 629 mmHg 92%
    09:00 +12°C° 0.1 mm 0 m/s 630 mmHg 90%
    10:00 +13°C° 0.1 mm 0 m/s 630 mmHg 87%
    11:00 +15°C° 0.5 mm 1 m/s 631 mmHg 82%
    12:00 +16°C° 0.5 mm 1 m/s 631 mmHg 77%
    13:00 +18°C° 0.5 mm 1 m/s 632 mmHg 72%
    14:00 +18°C° 0.7 mm 1 m/s 632 mmHg 73%
    15:00 +18°C° 0.7 mm 1 m/s 632 mmHg 74%
    16:00 +18°C° 0.7 mm 1 m/s 632 mmHg 75%
    17:00 +16°C° 0.6 mm 1 m/s 632 mmHg 81%
    18:00 +15°C° 0.6 mm 1 m/s 631 mmHg 86%
    19:00 +13°C° 0.6 mm 0 m/s 631 mmHg 92%
    20:00 +12°C° 0 mm 0 m/s 631 mmHg 92%
    21:00 +12°C° 0 mm 1 m/s 631 mmHg 92%
    22:00 +10°C° 0 mm 1 m/s 631 mmHg 93%
    23:00 +10°C° 0 mm 1 m/s 631 mmHg 93%
    Mostrar mais